Temp_Advection
nan nan nan nan nan nan nan nan nan nan nan nan nan nan nan nan nan nan nan nan nan nan nan nan nan nan nan nan nan nan nan nan nan nan nan nan nan nan nan nan nan nan nan nan nan nan nan nan nan nan nan nan nan nan nan nan nan nan nan nan nan nan nan nan nan nan nan nan nan
nan 0 0 0 0 0 0 0 0 1 1 0 0 0 0 1 1 0 -0 -0 -0 -0 -0 -0 0 0 0 0 0 0 0 0 0 0 1 0 0 -0 -0 -0 -0 -0 -0 -0 -0 0 0 0 0 0 0 0 0 0 -0 0 0 0 0 0 -0 0 0 0 0 0 -0 0 nan
nan 0 0 0 0 0 0 0 0 0 0 0 0 1 1 1 1 1 0 -0 -0 -0 -0 -0 0 0 0 0 0 0 0 0 0 0 0 0 0 0 0 0 0 -0 -0 -0 -0 -0 -0 -0 0 0 0 0 0 0 -0 -0 -0 -0 -0 -0 -0 -0 0 0 0 -0 -0 0 nan
nan 0 -0 -0 -0 -0 0 -0 0 0 0 0 1 1 1 1 1 1 0 0 0 0 0 0 0 -0 -0 -0 -0 0 0 0 0 0 0 0 0 1 1 1 1 1 0 0 0 -0 -0 -0 -0 -0 -0 -0 -0 -0 -0 -0 -0 -0 -0 -0 -0 -0 -0 -0 -0 0 -0 -0 nan
nan 0 0 0 -0 0 0 0 0 0 0 0 0 1 1 0 1 1 1 0 0 0 0 0 -0 -0 -0 0 0 0 0 0 0 0 0 0 1 1 1 1 1 1 1 1 1 1 0 -0 -0 -0 -0 -0 -0 -0 -0 -0 -0 -0 -0 -0 -0 -0 -0 -0 -0 -0 0 0 nan
nan 0 0 0 0 0 0 0 0 0 0 0 1 1 0 0 0 1 1 0 0 0 0 0 0 0 0 0 0 0 0 0 0 0 0 0 0 1 1 1 1 1 1 1 1 1 1 1 0 0 0 1 1 0 0 0 0 0 -0 -0 -0 -0 -0 -0 -0 -0 0 0 nan
nan 0 0 0 0 0 0 0 0 0 0 0 1 1 0 0 0 0 0 0 0 0 0 -0 0 0 0 0 0 0 0 -0 -0 -0 -0 0 0 1 1 1 1 1 1 1 1 1 1 1 1 1 1 1 1 1 0 0 0 0 -0 -0 -0 -0 -0 -0 -0 -0 -0 0 nan
nan 0 0 0 0 1 0 0 0 0 0 1 0 0 0 0 -0 -0 -0 -0 0 0 0 0 0 0 0 -0 -0 -0 -0 -0 -0 -0 -0 0 0 0 1 1 0 0 0 0 1 1 1 1 1 1 1 0 0 0 0 0 0 0 0 0 -0 -0 -0 -0 -0 -0 -0 -0 nan
nan -0 0 0 0 1 0 0 0 0 0 0 0 0 -0 -0 -0 -0 -0 -0 -0 0 0 0 0 0 -0 -0 -0 -0 -0 -0 -0 0 0 0 -0 -0 -0 -0 -0 -0 -0 -0 -0 0 0 0 0 0 0 0 0 0 0 0 0 0 0 0 0 0 0 0 -0 -0 -0 -0 nan
nan -0 -0 0 0 0 0 0 0 0 0 0 -0 -0 -0 -0 -0 -0 -0 -0 0 0 -0 -0 -0 -0 -0 -0 -0 -0 -0 -0 0 0 0 0 -0 -1 -1 -1 -1 -1 -1 -1 -1 -0 -0 -0 -0 -0 0 0 0 0 0 0 0 0 -0 0 -0 0 0 -0 -0 -0 -0 -0 nan
nan -0 -0 0 0 0 0 0 0 0 -0 -0 -0 -0 -0 -0 -0 -0 -0 0 0 -0 -0 -0 -0 -0 -0 -0 -0 -0 -0 -0 0 0 0 -0 -0 -0 -1 -1 -1 -1 -1 -1 -1 -1 -0 -0 -0 0 0 0 0 -0 0 0 0 -0 -0 -0 -0 -0 -0 -0 -0 -0 -0 -0 nan
nan -0 -0 0 0 0 0 0 -0 -0 -0 -0 -0 -1 -1 -0 -0 -0 0 -0 -0 -0 -0 -0 -0 -0 -0 -0 -0 -0 -0 -0 -0 -0 -0 -0 0 0 0 -0 -0 -0 -0 -1 -1 -1 -1 -1 -0 -0 -0 -0 -0 -0 -0 0 0 -0 -0 -0 -0 -0 -0 -0 -0 -0 -0 -0 nan
nan -0 -0 0 0 0 -0 -0 -0 -0 -0 -0 -1 -1 -1 -0 -0 -0 -0 -0 -0 -1 -0 -0 -0 -0 -1 -0 -0 -0 -0 -0 -0 -0 -0 0 0 1 1 0 0 0 -0 -0 -1 -1 -1 -1 -1 -1 -1 -1 -1 -1 -0 -0 -0 -0 -0 -0 -0 -0 -0 -0 -0 -0 -0 -0 nan
nan -0 -0 0 0 -0 -0 -1 -1 -1 -1 -1 -1 -0 -0 -0 -0 -0 -0 -0 -1 -1 -0 -0 -0 -0 -0 -0 -0 -0 -0 -0 -0 0 0 0 1 0 0 -0 -0 -1 -1 -1 -1 -1 -1 -1 -2 -2 -1 -1 -1 -1 -1 -1 -1 -1 -1 -1 -1 -1 -1 -0 -0 -0 -0 -0 nan
nan -0 -0 -0 -0 -0 -1 -1 -1 -1 -1 -1 -1 -0 -0 -0 -1 -1 -1 -1 -1 -0 -0 -0 -0 -0 -0 0 0 0 0 0 0 0 0 1 0 -0 -1 -1 -1 -2 -2 -2 -2 -1 -1 -1 -2 -2 -1 -1 -1 -1 -1 -1 -1 -1 -1 -1 -1 -1 -1 -0 0 0 0 -0 nan
nan -0 -0 -0 -0 -1 -1 -1 -1 -1 -1 -1 -1 -1 -1 -1 -1 -1 -1 -1 -1 -0 -0 -0 -0 -0 -0 -0 0 0 0 0 0 0 0 -0 -1 -1 -2 -2 -2 -2 -2 -2 -1 -1 -1 -1 -1 -1 -1 -1 -0 -0 -0 -1 -1 -1 -0 -0 -0 -0 -0 0 0 0 0 -0 nan
nan -0 -0 -0 -1 -1 -1 -1 -1 -1 -1 -1 -1 -1 -1 -1 -1 -1 -1 -1 -0 -0 -0 -0 -0 -0 -0 -0 0 0 0 0 -0 -0 -1 -1 -1 -1 -2 -3 -3 -2 -2 -1 -1 -1 -1 -1 -1 -0 -0 0 0 0 -0 -1 -0 1 1 1 1 0 0 0 0 0 -0 -1 nan
nan -0 -0 -0 -1 -0 -1 -1 -1 -1 -1 -1 -1 -1 -1 -1 -1 -0 -0 -0 -0 -0 -0 -0 -0 -0 0 0 0 0 0 -0 -1 -1 -1 -1 -1 -1 -2 -2 -2 -1 -1 -1 -1 -0 -1 -1 -0 0 0 1 1 0 0 0 1 2 1 1 1 0 -0 -1 -1 -0 -1 -1 nan
nan -0 -0 -0 -0 -0 -0 -0 -0 -1 -1 -1 -1 -1 -0 -0 -0 0 0 0 0 0 -0 -0 0 0 0 1 1 1 0 -0 -1 -1 -1 -0 -1 -1 -2 -2 -1 -1 -1 -1 -0 -0 -0 -0 0 0 1 1 1 1 1 1 1 1 1 0 -0 -0 -1 -1 -1 -1 -1 -1 nan
nan -0 -0 -0 0 0 0 -0 -0 -0 -0 -0 -0 -0 0 0 0 0 0 0 0 0 0 0 0 1 1 1 1 0 -0 -0 -1 -1 -1 -1 -1 -1 -2 -1 -1 -1 -0 -0 -0 0 0 0 0 1 1 1 1 1 0 0 0 -0 -0 -1 -1 -1 -1 -1 -1 -1 -1 -1 nan
nan -0 -0 -0 -0 0 -0 -0 -0 -0 0 0 0 0 0 0 0 0 0 1 1 1 0 1 1 1 1 1 0 -0 -0 -1 -1 -1 -1 -1 -1 -1 -1 -1 -1 -0 -0 0 0 0 0 0 0 1 1 0 0 0 0 -0 -0 -1 -1 -1 -1 -1 -1 -1 -1 -1 -1 -1 nan
nan -0 -0 -0 0 0 0 0 0 0 1 1 1 1 0 0 0 0 1 1 1 1 0 0 0 0 0 0 -0 -0 -0 -1 -1 -1 -1 -1 -1 -1 -1 -1 -0 -0 -0 -0 0 0 0 0 0 0 0 0 0 -0 -0 -1 -1 -1 -1 -1 -1 -1 -1 -1 -1 -1 -1 -1 nan
nan 0 0 0 0 0 0 1 1 1 1 1 1 0 0 0 0 1 1 1 0 0 0 0 -0 -0 -0 -0 -0 -1 -1 -1 -1 -1 -1 -2 -1 -1 -1 -1 -1 -1 -1 -1 -0 0 0 -0 -0 -0 -0 -0 -0 -0 -1 -1 -1 -1 -1 -1 -1 -1 -1 -1 -1 -1 -1 -1 nan
nan 0 0 1 1 1 1 1 1 1 1 0 0 0 0 0 0 1 1 0 -0 -0 -0 -0 -0 -0 -0 -0 -1 -1 -1 -1 -2 -2 -2 -2 -2 -2 -1 -1 -2 -2 -1 -1 -0 -0 -0 -0 -0 -0 -0 -1 -1 -1 -1 -1 -1 -1 -1 -1 -1 -1 -1 -1 -1 -1 -1 -1 nan
nan 1 1 1 1 1 1 1 1 0 0 -0 0 0 0 0 0 0 0 -0 -1 -1 -1 -0 -0 -0 -1 -1 -1 -1 -1 -2 -2 -2 -2 -2 -2 -2 -2 -2 -2 -2 -1 -0 0 -0 -0 -0 -0 -0 -1 -1 -1 -1 -1 -1 -0 -0 -1 -1 -1 -1 -1 -1 -1 -1 -1 -1 nan
nan 1 1 1 1 1 1 0 -0 -0 -0 -0 -0 -0 -0 -0 0 0 -0 -0 -1 -1 -0 -0 -1 -1 -1 -1 -1 -1 -2 -3 -3 -2 -2 -2 -2 -2 -2 -2 -2 -1 -1 0 0 -0 -0 -0 -0 -0 -0 -1 -1 -1 -0 -0 -0 -0 -0 -1 -1 -1 -1 -1 -1 -0 0 0 nan
nan 1 0 0 0 0 -0 -0 -0 -0 -0 -0 -0 -0 -0 -0 0 0 -0 -1 -1 -0 -0 -1 -1 -1 -1 -1 -1 -2 -3 -2 -2 -2 -2 -1 -1 -2 -2 -1 -1 -1 -0 0 -0 -0 -0 -0 -0 -0 -0 -0 -0 -0 -0 0 0 1 0 -0 -0 -0 -0 0 0 1 1 2 nan
nan 0 0 0 0 -0 -0 -0 -0 -0 -0 -1 -1 -0 -0 0 0 -0 -1 -1 -0 -0 -1 -1 -1 -0 -1 -1 -2 -2 -2 -2 -1 -1 -1 -1 -1 -1 -1 -1 -0 0 0 0 0 0 0 0 0 -0 -0 -0 0 0 1 1 1 1 1 0 0 0 1 1 1 1 1 1 nan
nan 0 0 0 -0 -0 -0 -0 -0 -1 -1 -1 -0 0 0 0 0 -0 -0 -0 -1 -1 -1 -1 0 0 -1 -2 -2 -2 -1 -1 -1 -1 -1 -1 -1 -1 -0 0 0 1 1 1 1 1 1 1 0 0 0 1 1 1 1 1 1 1 0 0 0 0 1 1 1 1 0 0 nan
nan -0 -0 -0 -0 -0 -0 -0 -1 -1 -0 -0 0 1 1 0 -0 -1 -1 -1 -1 -1 -1 0 1 -0 -1 -2 -1 -1 -1 -1 -1 -0 -1 -1 -1 -0 0 1 1 1 1 1 1 1 1 1 1 1 1 1 2 1 1 1 0 -0 -0 -0 0 0 0 0 0 0 0 0 nan
nan -0 -0 -0 -0 -0 -1 -1 -0 -0 -0 0 1 1 0 -0 -1 -1 -1 -1 -1 -0 1 1 0 -1 -1 -1 -1 -2 -2 -1 -1 -1 -1 -1 -0 0 1 1 1 1 1 2 1 1 1 1 1 1 1 1 1 1 0 0 -0 -0 -0 -0 0 0 0 0 0 0 0 0 nan
nan -0 -0 -0 -0 -1 -0 -0 -0 0 0 1 1 0 -0 -1 -1 -1 -1 -0 0 1 1 1 -0 -1 -1 -2 -2 -2 -2 -1 -1 -1 -1 -0 0 0 0 0 1 1 1 2 2 1 1 1 1 1 1 1 0 0 -0 0 -0 -0 -1 -0 -0 -0 -0 0 0 0 -0 -0 nan
nan 0 0 -0 -0 -0 -0 -0 0 0 1 1 0 -0 -1 -1 -1 -0 0 0 1 0 0 -1 -1 -2 -2 -2 -2 -2 -2 -2 -1 -1 -0 -0 0 1 0 0 1 1 1 2 1 1 1 1 1 1 1 1 0 -0 -0 -0 -0 -0 -1 -1 -1 -0 -0 0 0 0 -0 -0 nan
nan 0 -0 -0 -0 -0 -0 -0 0 1 1 0 -0 -1 -1 -1 -0 -0 -0 -0 -0 -0 -1 -1 -2 -2 -2 -2 -2 -1 -1 -1 -1 -1 -0 0 1 1 1 0 1 1 1 1 1 1 1 1 1 1 0 0 0 -0 -0 0 0 -0 -0 -1 -1 -0 -0 0 0 -0 -0 -0 nan
nan 0 -0 -0 -0 -0 -0 0 0 1 1 0 -1 -1 -1 -1 -1 -1 -1 -0 -0 -0 -1 -1 -1 -1 -1 -1 -1 -1 -0 -1 -1 -0 -0 0 1 1 1 0 1 1 1 1 1 1 1 1 1 1 1 0 -0 -0 -0 0 0 -0 -0 -0 -0 -0 -0 -0 -0 -0 -0 -0 nan
nan -0 -0 -0 -0 -0 -0 0 0 0 0 -0 -0 -1 -1 -1 -1 -1 -0 0 0 0 -0 -1 -0 -0 -0 -0 -0 -1 -1 -1 -0 -0 -0 0 0 1 1 1 1 1 1 1 1 1 1 1 1 1 1 0 -0 -0 -0 -0 -0 -0 -0 -0 -0 -0 -1 -1 -1 -0 0 0 nan
nan -0 -0 -0 -0 -0 -0 0 0 -0 -0 -0 -0 -0 -1 -1 -1 -0 0 0 0 -0 -1 -1 -0 -0 -0 -1 -1 -1 -0 -0 -0 -0 -0 -0 -0 0 1 1 1 1 1 1 1 1 1 1 1 1 0 0 -0 -0 -0 -0 -0 -0 -0 -0 -0 -0 -1 -1 -1 -0 -0 -0 nan
nan -0 -0 -0 -0 -0 0 0 -0 -0 -0 -0 -0 -0 -0 -0 -0 -0 -0 0 -0 -1 -1 -1 -1 -1 -1 -1 -0 -0 -0 0 -0 -0 -1 -1 -1 0 1 1 1 1 1 1 1 1 1 1 1 1 0 0 -0 -0 -0 -0 -0 -0 -0 -0 -0 -0 -0 -1 -0 -0 -0 -0 nan
nan -0 -0 -0 -0 -0 -0 -0 -0 -0 -0 -0 -0 -0 -0 -0 -1 -1 -0 -0 -1 -1 -1 -1 -1 -1 -0 -0 -0 -0 -0 -0 0 0 -0 -1 -1 -0 1 1 1 1 1 1 0 1 1 1 1 1 0 0 -0 -0 -0 -0 -0 -0 -0 -0 -0 -0 -0 -0 -0 -0 -0 -0 nan
nan 0 -0 -0 -0 -0 -0 -0 -0 -0 -0 -0 -0 -0 -0 -1 -1 -1 -0 -1 -1 -1 -1 -1 -1 -0 -0 0 -0 -0 -0 -0 0 0 0 0 0 0 -0 0 0 1 1 1 0 1 1 1 1 0 0 0 -0 -0 -0 -0 -0 -0 -0 -0 -0 -0 -0 -0 -0 -0 -0 -0 nan
nan nan nan nan nan nan nan nan nan nan nan nan nan nan nan nan nan nan nan nan nan nan nan nan nan nan nan nan nan nan nan nan nan nan nan nan nan nan nan nan nan nan nan nan nan nan nan nan nan nan nan nan nan nan nan nan nan nan nan nan nan nan nan nan nan nan nan nan nan
Wind_Speed
20 20 20 21 22 23 23 23 23 21 21 21 22 22 22 22 23 23 23 23 23 24 24 25 26 26 26 26 26 26 26 26 26 27 27 28 27 27 25 24 24 24 22 22 22 22 22 20 18 17 17 17 18 18 18 17 17 16 16 16 17 17 17 18 17 17 16 16 16
20 20 20 21 21 22 23 23 22 22 21 21 22 22 22 22 22 22 22 22 22 23 25 26 26 26 26 26 26 26 26 27 27 27 28 29 28 27 26 25 25 23 22 21 22 22 21 21 19 18 18 18 18 18 18 17 17 17 16 16 16 16 16 17 17 17 17 17 17
20 19 20 20 21 22 22 22 22 22 22 22 22 22 22 22 22 22 22 22 22 23 24 25 25 26 26 26 26 26 27 27 27 28 28 29 28 27 25 25 24 23 22 21 21 21 21 21 19 18 17 17 17 17 17 17 17 16 16 16 16 16 16 17 17 17 17 17 18
19 19 19 20 21 22 22 22 22 22 22 22 23 23 23 22 22 22 21 21 22 22 23 23 25 26 26 26 26 26 26 26 26 26 27 27 27 26 25 25 24 23 22 21 21 20 20 19 18 17 16 16 16 16 16 16 16 16 16 16 15 15 16 16 17 17 17 17 18
18 18 18 19 20 21 21 22 22 22 22 22 23 23 23 22 22 22 21 21 21 22 22 23 24 24 25 25 25 25 25 25 24 24 25 26 26 26 26 26 25 24 23 22 21 20 18 17 17 16 16 15 15 14 14 14 14 14 14 13 13 14 14 16 17 17 17 17 17
18 18 18 19 20 20 21 21 21 21 22 22 22 22 22 21 21 21 21 21 21 22 22 23 23 24 24 24 24 24 24 24 23 23 24 25 26 27 28 28 28 27 25 24 22 21 19 17 16 15 14 14 14 14 13 13 12 11 10 10 11 13 15 16 16 15 14 14 13
18 17 18 18 19 20 21 21 21 21 21 21 21 21 21 20 21 21 21 22 22 22 23 23 23 24 24 24 24 24 24 23 23 23 23 25 26 28 29 29 28 27 26 25 24 22 20 18 16 14 14 14 14 14 13 12 10 9 9 10 13 15 16 15 12 10 9 10 11
17 17 17 18 19 20 20 21 21 21 20 20 20 20 20 20 20 21 22 22 23 23 23 23 23 23 24 24 24 24 24 24 23 23 24 25 26 27 28 28 27 25 25 24 23 22 21 19 16 15 14 14 14 13 11 9 8 9 10 12 15 16 17 15 13 10 8 9 9
18 17 17 18 18 19 20 20 20 20 20 19 19 19 19 20 21 22 23 23 23 23 23 23 23 23 24 24 25 25 25 25 25 25 25 25 26 27 27 27 26 25 24 23 22 22 21 19 16 14 13 11 11 9 8 7 7 10 12 14 14 14 14 14 12 9 7 7 7
18 18 17 17 18 19 19 19 19 19 19 18 18 19 19 20 21 22 23 23 23 23 23 23 24 24 24 25 25 25 25 25 25 25 26 26 26 27 27 27 26 25 24 22 21 20 19 18 16 14 12 10 9 8 7 7 9 11 13 12 11 9 8 9 9 8 6 5 5
19 18 17 16 17 18 18 19 19 19 18 18 18 19 19 21 22 23 23 23 23 23 23 23 24 24 25 25 24 24 25 25 25 26 26 26 26 27 27 27 26 25 24 22 21 20 19 18 17 15 14 12 11 9 8 8 9 10 10 9 8 6 5 5 6 7 6 5 4
18 17 16 16 17 18 18 18 19 19 19 19 19 19 20 21 22 23 23 23 23 23 22 23 23 23 24 24 24 24 24 24 25 25 26 26 27 27 27 26 26 25 24 23 22 21 20 19 18 17 16 15 14 12 11 9 9 9 9 9 8 8 7 7 7 7 7 7 5
18 17 16 16 17 18 18 19 20 20 21 21 21 21 22 22 24 24 24 24 23 22 22 22 22 22 23 23 22 22 23 23 24 25 26 27 27 28 27 27 26 26 25 24 23 23 22 21 20 19 18 17 15 14 13 12 11 11 11 11 11 11 10 10 9 9 8 8 7
18 18 17 16 17 18 19 20 21 22 23 23 24 24 24 24 25 25 25 24 23 22 22 22 22 22 22 22 21 21 22 22 24 25 27 28 28 29 28 28 28 28 27 26 25 24 23 22 21 19 18 17 16 15 14 14 15 15 15 15 15 15 14 13 12 10 9 9 9
18 18 17 17 18 19 20 21 22 23 23 24 25 25 25 25 26 26 25 24 23 22 22 22 22 22 21 21 21 21 21 22 24 25 27 28 29 29 30 30 30 30 29 29 27 26 24 22 20 19 18 17 17 17 17 18 19 20 20 20 20 20 20 18 17 15 14 12 11
19 18 18 18 19 20 21 22 22 23 23 24 24 25 25 25 26 26 25 24 23 22 22 22 22 22 22 21 21 21 22 23 24 26 27 28 29 30 30 31 31 31 30 30 28 27 25 23 20 19 18 18 19 19 21 22 24 25 25 24 24 24 24 24 22 21 19 17 15
19 19 19 19 20 20 21 22 22 23 23 23 23 24 24 24 25 25 24 24 23 23 22 23 23 22 22 22 21 22 23 24 25 26 27 28 28 29 30 30 31 31 30 29 28 27 25 23 21 20 20 20 21 21 22 24 25 26 25 25 25 26 26 26 26 25 23 21 20
18 18 19 19 20 20 21 21 22 22 22 22 23 23 23 23 24 24 24 24 23 23 23 23 23 23 23 23 23 23 24 25 26 27 27 27 28 28 29 29 29 29 28 28 27 26 24 22 22 22 22 22 22 22 23 23 24 24 24 24 25 25 25 26 27 27 26 26 25
18 19 19 19 20 20 21 21 22 22 22 22 22 22 23 23 24 24 24 24 24 24 25 25 25 25 24 24 25 25 26 27 27 27 27 27 27 27 28 28 28 27 26 26 25 25 24 23 22 22 23 23 23 23 24 24 24 23 23 23 23 23 24 24 25 26 27 28 28
19 19 19 19 20 20 21 21 22 22 22 22 23 23 24 24 24 25 25 25 25 26 26 26 26 26 26 26 26 27 27 27 27 27 27 26 26 27 27 27 26 25 24 24 24 24 23 23 22 22 22 22 23 23 23 23 23 23 23 24 24 24 23 23 24 25 26 28 29
19 19 19 20 20 21 21 21 22 22 23 23 24 24 24 25 25 26 26 26 26 27 27 27 28 28 28 28 28 28 28 27 27 27 27 26 26 26 26 25 24 23 23 22 22 22 22 22 22 21 21 21 21 22 22 22 23 23 24 24 25 25 26 25 25 26 27 29 30
20 20 20 20 21 21 22 22 22 23 23 24 24 25 25 25 26 26 26 26 27 27 28 28 28 29 29 29 29 28 28 27 27 26 26 26 26 26 25 24 23 23 22 21 21 21 21 21 21 20 20 20 20 20 21 21 22 23 24 25 27 28 29 30 30 31 32 33 35
20 20 20 21 21 22 22 23 23 24 24 24 25 25 25 25 26 26 26 26 26 27 28 28 28 28 28 28 28 27 27 26 26 26 26 26 26 25 25 24 23 22 22 21 20 20 19 19 20 20 20 20 20 20 21 21 22 24 25 27 28 30 32 33 34 35 36 38 39
20 20 20 21 21 22 22 23 23 23 24 24 24 24 24 25 25 25 25 25 26 27 27 27 28 27 27 27 26 26 26 26 26 27 27 26 26 25 25 24 24 23 22 21 20 19 19 19 19 20 20 21 21 21 22 23 24 25 27 28 30 32 33 35 36 37 38 39 40
19 19 20 20 21 21 22 22 22 23 23 23 23 23 24 24 24 24 24 25 25 26 26 27 27 27 26 26 26 26 26 26 27 27 27 27 26 26 25 25 24 24 22 21 19 19 19 20 20 21 22 23 23 24 25 26 27 28 29 30 32 34 35 36 37 38 38 38 38
18 18 19 20 20 20 21 21 21 22 22 22 22 22 23 23 23 23 24 24 25 25 26 26 26 26 26 26 26 26 27 27 27 27 27 27 27 26 26 26 25 24 23 21 19 19 20 21 22 23 24 25 26 27 28 29 30 30 31 32 34 35 36 37 37 37 36 36 35
18 18 18 19 19 19 20 20 20 21 21 21 21 22 22 22 22 23 23 24 25 25 25 26 26 26 26 26 27 27 28 28 28 27 27 27 27 27 27 27 26 25 23 21 20 20 21 22 23 25 26 27 28 29 30 30 31 31 32 33 33 34 34 34 34 33 33 32 31
18 18 18 18 18 19 19 19 20 20 20 20 21 21 21 22 22 23 23 24 25 25 26 26 26 26 27 27 27 28 28 28 27 27 27 27 27 26 26 26 26 25 23 22 21 21 22 24 25 27 28 29 30 30 30 30 30 30 30 30 31 31 31 31 31 31 30 30 30
19 18 18 18 18 18 18 19 19 19 20 20 20 21 21 22 22 23 24 24 25 26 27 27 27 27 27 27 27 27 27 27 27 27 27 27 27 26 26 25 25 24 24 23 22 23 24 26 27 28 29 29 29 29 29 29 29 29 29 29 29 29 30 30 30 30 30 30 30
20 19 19 18 18 18 18 18 19 19 19 20 20 21 21 22 22 23 24 25 26 26 27 27 27 27 27 27 27 27 27 28 28 28 28 28 28 27 27 26 25 24 24 23 23 24 25 26 27 28 28 28 27 27 27 27 28 29 29 30 30 30 31 31 31 31 31 30 30
20 20 19 19 18 18 18 18 19 19 19 20 21 21 22 22 23 24 24 25 26 26 26 27 27 28 28 28 28 28 28 29 29 30 30 29 29 29 28 27 26 25 24 24 24 25 25 26 26 26 26 26 26 26 27 28 29 30 30 30 31 31 31 31 31 31 31 30 30
20 19 19 19 18 18 18 18 19 19 20 20 21 21 22 23 23 24 25 25 26 26 26 27 28 28 28 28 28 28 29 30 30 31 31 31 30 30 30 29 28 26 25 25 25 25 25 25 24 24 24 25 26 27 27 28 29 30 30 30 30 31 30 30 30 30 30 30 29
20 19 19 19 18 18 18 19 19 20 20 21 21 22 22 23 24 24 25 26 26 26 27 28 28 28 28 28 28 28 29 30 31 31 31 31 31 31 30 29 28 27 26 25 25 25 24 24 24 24 24 25 26 27 27 28 28 29 29 30 30 30 30 30 30 29 29 29 28
19 19 19 18 18 18 19 19 19 20 20 21 22 22 23 23 24 24 25 26 27 27 28 28 28 28 28 27 27 28 28 29 30 30 30 30 30 30 30 29 28 27 26 25 25 25 24 24 24 24 25 25 26 27 27 28 28 28 29 29 30 30 30 29 29 29 28 28 27
19 19 18 18 18 18 18 19 19 20 20 21 22 22 23 23 24 25 26 26 27 28 28 28 28 28 28 27 27 27 28 28 29 29 30 30 29 29 29 28 27 26 26 25 25 25 24 24 24 24 25 25 26 27 27 28 28 28 28 29 29 29 29 28 28 28 27 26 26
18 18 18 18 18 18 18 18 19 19 20 21 21 22 23 23 24 25 26 26 27 27 28 28 28 28 28 27 27 27 28 28 28 29 29 29 29 29 28 28 27 26 26 25 25 25 24 24 24 24 25 25 26 27 27 27 28 28 28 28 28 28 28 28 27 27 26 26 26
18 18 17 17 17 17 18 18 18 19 20 20 21 21 22 23 24 25 26 26 26 27 27 28 28 28 28 28 27 27 27 28 28 28 29 29 29 28 28 27 27 26 26 25 25 24 24 24 24 24 24 25 26 26 27 27 27 27 27 28 28 27 27 27 27 27 27 26 26
17 17 17 17 17 17 17 18 18 19 19 20 20 21 22 23 23 24 25 25 26 26 27 27 28 28 28 28 27 27 27 27 27 28 28 28 28 28 27 27 27 26 26 25 25 25 24 24 24 23 24 24 25 26 26 26 27 27 27 27 27 27 27 27 27 27 27 27 26
17 17 17 17 17 17 17 17 18 18 19 19 20 21 21 22 23 24 24 25 25 26 26 26 27 27 27 27 27 26 26 26 27 27 27 28 28 28 27 27 26 26 26 25 25 25 24 24 23 23 23 24 25 25 26 26 26 26 27 27 27 27 27 27 27 27 27 27 26
17 17 17 17 17 17 17 17 18 18 18 19 19 20 20 21 22 23 24 24 25 25 26 26 26 26 26 26 26 26 26 26 26 26 26 26 26 27 27 27 26 26 25 25 25 25 24 24 24 23 24 24 25 25 26 26 26 26 27 27 27 27 27 28 28 27 27 27 27
17 18 18 18 17 17 17 17 17 17 18 18 18 19 19 20 21 22 23 24 25 25 25 25 25 25 26 26 26 25 25 25 25 25 25 25 25 26 26 26 26 25 25 25 25 25 24 24 24 24 24 24 25 25 26 26 26 27 27 27 27 28 28 28 27 27 27 27 27
Wind_Direction
359 359 359 0 0 360 359 0 2 360 356 355 354 353 350 348 347 346 348 352 353 353 353 354 353 352 351 350 348 347 346 346 346 347 347 348 349 349 346 339 335 333 330 326 323 320 320 321 321 321 321 319 315 311 308 307 305 305 305 305 301 298 296 294 292 288 283 277 272
0 0 0 1 1 0 0 1 3 3 2 0 360 357 355 353 351 351 352 352 351 352 353 353 353 353 352 351 350 348 347 347 347 349 351 353 355 354 351 345 342 339 337 333 329 326 326 326 325 325 325 326 321 314 308 307 305 303 303 304 301 297 295 294 291 287 283 278 274
1 1 2 3 3 2 2 2 4 5 6 6 4 1 360 358 356 354 353 353 352 352 352 353 353 353 353 352 351 349 348 348 349 352 355 356 356 354 352 348 346 344 341 337 335 334 335 335 333 331 331 331 326 320 316 315 313 309 306 302 299 298 297 297 295 291 287 284 282
2 2 3 5 5 4 3 4 4 5 6 7 6 5 4 3 2 0 359 358 356 354 353 353 354 354 354 352 351 351 351 351 352 355 357 355 352 351 350 349 348 346 344 341 338 337 338 340 340 338 336 332 327 323 321 319 318 314 309 304 300 298 297 296 294 292 289 288 288
3 4 6 8 8 7 6 6 6 7 7 8 8 7 5 4 3 3 4 4 1 357 356 356 356 355 355 354 354 355 357 359 1 1 359 355 352 351 351 351 350 349 347 344 342 340 340 340 340 338 335 332 328 326 324 323 322 318 314 309 306 304 302 301 300 299 297 296 296
4 6 9 11 10 8 8 8 9 10 10 10 10 8 5 4 4 5 7 8 5 2 360 359 359 358 358 359 1 4 7 10 10 8 3 359 356 355 355 355 356 355 354 352 349 348 347 346 345 343 343 344 344 344 343 339 338 334 329 326 322 317 314 311 310 308 303 297 293
5 8 12 13 12 10 10 11 12 12 13 13 11 9 7 6 7 8 9 10 8 5 3 2 1 2 3 5 8 12 15 16 15 12 7 4 2 0 360 360 1 3 3 3 2 0 359 359 357 354 355 360 3 3 1 359 354 350 344 334 324 315 310 308 305 300 289 280 274
7 11 15 15 14 13 13 13 14 15 15 15 13 11 9 9 10 11 11 10 8 6 4 4 4 5 7 8 10 14 16 17 16 13 9 6 4 3 3 3 5 7 9 11 12 13 13 13 13 11 10 10 9 9 9 6 358 345 331 318 310 307 306 306 302 294 283 278 278
8 13 17 17 16 15 15 16 16 16 17 17 15 13 12 11 12 11 11 9 8 6 5 5 6 7 7 8 10 12 14 14 13 10 7 5 3 4 5 6 7 9 11 13 16 18 20 21 21 20 17 13 10 10 10 3 342 324 312 304 304 310 317 322 319 311 301 298 300
8 14 18 20 20 19 18 18 17 17 17 17 16 14 13 12 11 10 9 8 7 6 6 7 7 6 6 7 8 10 11 11 9 7 5 5 5 7 8 10 10 11 11 12 14 17 21 24 25 23 18 12 6 1 351 335 318 309 305 304 309 320 334 338 332 325 319 317 313
8 14 19 23 22 22 21 20 18 16 16 16 15 13 12 10 9 8 7 6 6 6 6 6 6 5 5 7 9 10 10 9 8 8 8 9 11 13 14 14 14 13 13 12 12 14 18 22 24 23 19 13 6 357 343 327 316 313 315 318 322 328 335 339 336 336 338 341 335
9 14 20 24 24 24 24 23 19 17 15 14 12 11 9 8 6 5 4 4 4 5 5 5 5 5 6 8 10 11 12 12 13 14 17 19 20 20 19 18 17 16 15 13 11 11 11 12 13 13 12 11 9 6 0 352 345 343 343 343 341 341 344 349 353 355 357 358 359
10 15 21 26 27 28 28 25 22 18 15 13 10 9 7 5 4 3 3 3 3 3 3 4 6 7 9 11 13 15 17 19 22 25 27 28 27 25 23 22 20 19 18 16 13 10 8 5 4 4 5 7 9 10 11 11 12 12 11 7 3 3 4 6 8 8 6 3 6
12 17 23 28 30 31 30 27 24 20 17 14 11 8 6 4 3 3 4 4 4 4 4 6 8 11 12 14 17 20 24 28 31 34 35 34 32 30 28 27 26 25 23 21 18 14 12 9 8 8 10 13 17 21 24 28 32 35 33 29 26 24 24 23 24 23 20 15 15
15 19 24 29 31 31 30 28 25 22 19 15 12 9 7 5 4 5 6 7 7 7 7 10 13 14 15 16 20 25 30 35 37 38 38 37 36 35 34 33 33 31 29 26 24 21 19 19 19 21 24 30 36 40 44 48 50 51 49 45 41 40 39 39 38 37 35 32 30
18 20 24 28 30 30 29 28 26 23 20 16 12 10 8 7 7 8 10 12 12 13 14 16 18 19 19 20 24 29 34 38 40 40 39 38 38 38 39 39 38 36 34 32 30 28 27 28 31 36 40 45 49 53 57 60 61 59 57 53 50 48 48 48 47 47 45 43 41
21 23 25 28 29 29 28 27 26 24 21 17 14 12 11 11 11 13 16 18 19 20 22 24 25 26 26 27 30 33 37 39 40 40 39 39 40 41 42 42 41 40 38 37 36 35 35 37 43 48 52 54 55 57 60 63 63 62 60 58 55 54 54 54 54 54 54 53 51
25 26 27 28 29 29 28 28 27 25 23 20 18 17 17 17 19 21 24 26 28 29 31 33 34 34 35 36 37 38 38 39 39 39 39 40 41 42 43 43 43 42 41 41 40 41 42 44 50 55 57 57 55 55 55 57 59 60 60 59 58 58 58 59 59 59 60 59 58
29 30 30 31 31 31 31 31 30 29 27 26 25 25 25 27 28 30 32 34 36 38 39 41 42 42 43 43 42 40 39 38 38 38 38 39 40 41 42 43 43 43 44 45 45 45 46 48 52 55 57 56 54 52 51 51 52 53 54 55 55 56 58 60 61 62 62 62 61
35 35 35 35 36 36 36 36 36 35 35 34 34 34 35 36 37 38 40 42 43 44 46 47 47 47 47 45 44 42 40 38 37 37 37 38 39 40 40 41 42 44 46 48 49 49 50 50 51 52 53 53 53 52 51 50 49 50 50 51 51 52 54 57 60 63 65 66 65
42 41 41 42 42 43 44 44 44 43 43 43 42 42 43 43 44 45 46 47 47 48 49 49 49 49 47 46 44 42 41 39 38 37 37 37 37 38 39 40 41 43 45 47 49 50 51 51 50 49 49 50 52 53 53 53 52 51 51 52 52 54 55 58 61 65 68 70 70
48 48 49 49 50 51 51 51 51 50 50 49 48 48 47 48 48 49 49 49 49 50 50 50 49 48 47 46 44 43 42 40 39 38 37 37 37 37 38 39 40 41 42 44 45 47 49 50 50 49 49 50 52 53 55 56 56 57 57 58 59 61 62 64 66 68 70 71 72
53 54 55 56 56 57 57 56 55 54 53 51 50 50 50 50 50 50 50 50 50 50 49 49 49 48 47 46 45 44 43 42 41 40 39 38 38 38 38 38 38 39 39 40 40 42 44 47 50 51 51 52 54 55 57 59 61 62 64 65 67 68 69 69 70 71 72 72 72
57 58 59 59 60 59 59 57 56 54 53 52 51 50 50 51 51 51 51 50 50 50 50 50 49 49 48 47 47 46 45 44 43 42 41 40 40 39 39 39 39 39 39 39 39 40 42 46 50 54 55 56 57 59 61 63 65 67 68 70 71 72 72 73 73 73 73 72 72
58 59 59 60 59 58 57 56 54 52 51 51 51 51 51 52 52 52 52 52 52 51 51 51 51 50 50 49 48 48 47 46 45 44 43 42 42 42 42 41 41 41 41 40 40 41 45 50 54 58 60 61 62 64 65 67 69 70 71 72 73 74 74 74 73 72 72 71 71
55 56 56 56 56 55 54 53 52 51 50 50 51 51 52 53 53 54 54 54 54 54 53 53 52 52 51 50 50 49 48 48 47 46 45 45 45 45 45 44 43 43 42 42 42 45 50 55 60 62 64 66 67 68 70 71 72 73 74 75 75 75 75 74 73 72 71 70 70
50 51 51 51 51 51 52 51 50 50 50 51 52 53 54 55 55 56 56 56 56 56 55 54 53 53 52 52 51 51 50 49 48 48 47 47 46 46 46 45 44 43 43 43 46 51 56 61 64 66 68 70 71 72 73 75 76 76 77 77 77 77 77 76 75 74 74 73 72
47 48 48 48 49 49 49 49 50 51 51 52 54 55 56 57 57 58 58 58 57 57 56 55 54 53 53 53 53 53 52 51 50 50 49 49 48 47 46 45 44 44 44 46 51 57 62 66 68 70 72 73 74 75 76 77 78 78 78 78 77 77 77 77 77 77 76 75 75
47 47 47 48 48 48 49 50 51 52 53 55 56 57 58 58 58 59 59 58 58 57 56 55 54 53 53 54 54 55 55 54 54 53 52 51 50 48 46 45 45 45 47 51 57 63 68 70 73 74 75 76 76 77 78 79 79 78 77 76 75 75 75 75 75 74 74 73 72
48 48 48 49 49 49 50 51 52 54 56 57 58 58 58 58 59 59 59 59 58 58 57 56 55 54 54 54 55 56 56 57 56 56 55 54 52 51 50 49 49 50 53 59 65 70 72 74 76 77 78 79 79 80 80 80 79 77 76 74 73 72 72 71 70 70 69 68 67
49 50 50 51 51 52 53 54 55 56 58 58 59 58 58 58 59 59 59 59 59 58 57 56 55 55 55 55 56 57 58 59 59 58 58 57 57 57 57 57 57 59 62 66 69 71 73 74 76 77 78 79 80 80 79 79 78 76 75 74 72 71 70 69 68 67 66 65 63
52 52 53 54 54 55 56 57 57 58 59 59 59 59 59 59 59 59 59 59 58 58 57 56 55 55 55 56 57 59 60 61 61 61 60 60 60 61 61 62 62 63 64 66 67 67 68 69 70 71 73 74 75 76 76 76 76 76 75 73 72 70 68 67 66 65 64 63 61
54 55 56 56 57 58 59 59 59 60 60 60 59 60 60 60 59 59 58 58 57 56 56 55 55 56 57 58 59 60 62 63 63 63 62 62 62 62 62 62 61 61 61 61 62 62 63 63 65 66 68 69 71 72 73 74 74 74 73 72 71 69 67 65 64 63 62 61 60
57 57 58 59 60 61 61 62 61 61 61 61 60 60 60 60 61 60 59 58 56 55 55 55 56 57 58 60 62 63 64 65 65 65 64 63 62 61 60 60 59 58 58 58 59 60 61 62 64 66 67 69 69 70 70 71 70 71 70 70 69 68 67 65 64 62 61 61 60
59 60 59 60 62 63 64 64 63 63 62 62 61 61 61 61 62 62 61 60 58 56 55 55 55 57 59 61 65 66 67 67 67 66 65 64 62 61 60 59 58 57 57 57 58 59 61 63 65 66 68 69 70 70 69 68 68 68 67 67 67 66 66 65 64 62 61 60 60
62 61 61 61 62 63 64 64 64 63 62 62 62 62 62 63 64 64 64 62 60 58 57 57 57 57 58 60 63 66 68 69 68 68 67 66 64 61 60 60 59 58 58 58 58 60 61 63 65 66 67 69 69 69 68 68 67 66 66 65 65 64 64 63 62 61 60 58 58
64 62 61 61 61 61 62 63 62 62 62 62 63 63 64 65 66 66 65 63 61 60 59 58 58 58 59 60 61 64 67 68 69 69 69 68 66 63 61 60 60 59 59 59 59 60 61 63 64 65 66 67 67 68 67 67 66 65 65 64 63 62 62 61 60 59 57 56 54
64 63 61 60 59 58 58 59 59 59 60 61 63 65 66 67 68 68 67 65 62 61 60 59 60 61 61 62 62 63 64 65 66 67 67 68 67 65 63 62 61 61 60 60 60 61 61 62 63 64 64 65 66 66 66 65 65 64 63 63 62 61 60 59 58 57 55 53 52
64 62 60 58 57 56 55 55 56 57 59 61 64 66 67 68 69 69 68 65 64 62 62 61 62 64 65 65 64 63 63 63 63 63 65 66 67 67 66 64 63 63 62 62 62 62 62 62 62 62 62 63 64 64 64 64 64 63 62 62 61 60 59 58 57 55 54 52 50
62 61 59 58 56 55 54 54 55 56 58 61 64 67 69 70 70 69 67 66 65 64 64 64 66 67 68 68 67 65 63 62 61 61 62 63 65 67 67 67 65 65 64 64 63 63 62 62 61 60 60 61 62 63 63 63 62 62 61 60 59 58 57 56 55 54 53 52 50
61 59 58 56 55 55 54 54 55 57 59 62 66 69 70 70 70 69 67 66 66 66 66 67 68 69 70 70 69 67 65 63 61 60 60 61 63 65 66 67 67 66 65 65 64 64 63 62 60 59 59 59 60 60 61 61 60 60 59 58 57 57 56 55 54 54 52 51 49
Height
1479 1477 1476 1474 1473 1471 1470 1468 1466 1465 1463 1462 1460 1459 1457 1455 1453 1451 1450 1448 1446 1444 1442 1440 1439 1437 1435 1434 1432 1430 1428 1427 1425 1423 1421 1419 1418 1416 1414 1413 1411 1410 1408 1406 1404 1402 1400 1398 1397 1396 1395 1395 1393 1392 1391 1391 1390 1389 1389 1388 1387 1387 1386 1385 1384 1384 1383 1382 1382
1479 1477 1476 1475 1473 1471 1470 1468 1467 1465 1463 1462 1460 1459 1457 1455 1453 1451 1450 1448 1446 1444 1442 1440 1439 1437 1435 1434 1432 1430 1428 1426 1425 1423 1421 1419 1417 1416 1414 1413 1411 1409 1407 1405 1404 1402 1400 1398 1397 1396 1395 1394 1393 1392 1391 1391 1390 1389 1389 1388 1387 1386 1385 1385 1384 1383 1382 1381 1380
1478 1477 1476 1474 1473 1471 1470 1468 1466 1465 1463 1462 1460 1459 1457 1455 1453 1451 1450 1448 1447 1445 1443 1441 1439 1437 1435 1434 1432 1430 1428 1426 1425 1423 1421 1419 1417 1416 1414 1413 1410 1409 1407 1405 1403 1401 1400 1398 1397 1396 1395 1394 1393 1393 1392 1391 1390 1389 1389 1388 1387 1386 1385 1384 1383 1382 1381 1380 1380
1478 1477 1475 1474 1473 1471 1470 1468 1466 1465 1463 1462 1460 1459 1457 1455 1454 1452 1450 1449 1447 1445 1443 1441 1440 1438 1436 1434 1432 1430 1429 1427 1425 1423 1421 1419 1418 1416 1415 1413 1410 1408 1406 1405 1402 1401 1400 1398 1397 1396 1395 1394 1394 1393 1391 1390 1390 1389 1388 1387 1386 1385 1384 1383 1383 1382 1381 1380 1379
1478 1477 1475 1474 1473 1471 1470 1468 1466 1465 1463 1462 1460 1459 1457 1455 1454 1452 1450 1448 1447 1446 1444 1442 1440 1438 1436 1435 1432 1430 1429 1427 1425 1423 1421 1420 1418 1416 1415 1413 1410 1408 1406 1404 1402 1400 1399 1398 1397 1396 1395 1394 1393 1392 1391 1390 1389 1388 1387 1386 1385 1385 1384 1382 1381 1380 1380 1379 1379
1478 1477 1476 1475 1473 1471 1470 1468 1467 1465 1464 1462 1460 1459 1457 1455 1454 1452 1450 1449 1448 1446 1444 1442 1440 1439 1437 1435 1433 1430 1429 1427 1425 1423 1422 1420 1418 1416 1415 1412 1410 1409 1406 1404 1402 1400 1399 1397 1397 1396 1395 1394 1393 1392 1391 1390 1389 1388 1387 1386 1385 1385 1384 1382 1381 1381 1380 1380 1379
1479 1477 1476 1475 1473 1471 1470 1468 1467 1465 1464 1462 1460 1459 1457 1456 1454 1452 1451 1449 1448 1446 1444 1442 1440 1439 1437 1435 1433 1430 1429 1427 1425 1423 1422 1420 1418 1416 1415 1413 1411 1409 1407 1405 1402 1400 1399 1398 1397 1396 1395 1394 1393 1392 1391 1390 1390 1389 1388 1387 1386 1385 1384 1383 1381 1381 1380 1379 1378
1479 1478 1476 1475 1473 1471 1470 1468 1467 1465 1464 1462 1461 1459 1458 1456 1454 1453 1451 1449 1448 1446 1444 1443 1441 1439 1437 1435 1433 1431 1429 1427 1425 1424 1422 1420 1418 1416 1415 1413 1411 1409 1407 1405 1403 1401 1400 1398 1397 1396 1396 1395 1394 1393 1392 1391 1390 1389 1388 1387 1386 1385 1383 1382 1381 1380 1380 1379 1378
1479 1477 1476 1475 1473 1472 1470 1469 1467 1466 1464 1463 1461 1460 1458 1456 1455 1453 1451 1450 1448 1446 1445 1443 1441 1440 1438 1436 1434 1431 1430 1428 1426 1424 1422 1420 1418 1416 1415 1413 1411 1410 1408 1406 1404 1402 1400 1399 1398 1397 1396 1396 1395 1394 1393 1391 1390 1389 1388 1387 1386 1385 1384 1383 1381 1380 1380 1379 1378
1479 1477 1476 1475 1473 1472 1470 1469 1468 1466 1465 1463 1462 1460 1459 1457 1455 1453 1452 1450 1449 1447 1445 1443 1441 1440 1438 1436 1434 1432 1430 1429 1427 1425 1423 1421 1419 1417 1415 1413 1412 1410 1409 1407 1405 1403 1401 1400 1399 1398 1397 1396 1395 1394 1393 1391 1390 1389 1388 1387 1386 1386 1385 1384 1383 1381 1380 1380 1379
1479 1477 1476 1475 1474 1472 1470 1469 1468 1467 1465 1464 1462 1460 1459 1457 1455 1454 1452 1451 1449 1447 1445 1444 1442 1440 1438 1436 1435 1433 1431 1430 1428 1426 1424 1422 1420 1418 1416 1414 1413 1411 1410 1408 1407 1405 1403 1402 1400 1399 1398 1397 1395 1394 1393 1392 1391 1390 1389 1387 1386 1386 1385 1384 1383 1382 1381 1380 1379
1479 1478 1476 1475 1474 1472 1471 1470 1468 1467 1465 1464 1463 1461 1459 1458 1456 1455 1453 1451 1449 1448 1446 1444 1442 1440 1439 1437 1435 1434 1432 1430 1428 1426 1425 1423 1421 1419 1417 1415 1414 1412 1410 1409 1408 1406 1405 1404 1402 1401 1399 1398 1396 1395 1394 1393 1392 1390 1389 1388 1387 1385 1385 1384 1383 1382 1381 1380 1379
1479 1478 1477 1475 1474 1473 1471 1470 1469 1467 1466 1464 1463 1461 1460 1458 1456 1455 1453 1451 1450 1448 1446 1444 1443 1441 1439 1437 1436 1434 1432 1431 1429 1427 1425 1423 1422 1420 1418 1416 1415 1413 1411 1410 1408 1407 1406 1404 1403 1401 1400 1399 1397 1396 1395 1393 1392 1391 1390 1388 1387 1386 1385 1384 1383 1382 1381 1381 1380
1480 1478 1477 1475 1474 1473 1471 1470 1469 1467 1466 1465 1463 1461 1460 1458 1457 1455 1453 1451 1450 1448 1446 1445 1443 1441 1440 1438 1436 1435 1433 1431 1429 1428 1426 1424 1423 1421 1419 1417 1415 1414 1412 1410 1409 1408 1406 1405 1403 1402 1400 1399 1398 1397 1395 1394 1393 1391 1390 1389 1387 1386 1385 1384 1383 1383 1382 1381 1380
1480 1479 1477 1476 1474 1473 1471 1470 1469 1468 1466 1465 1463 1462 1460 1459 1457 1455 1454 1452 1450 1449 1447 1445 1444 1442 1440 1439 1437 1435 1434 1432 1430 1428 1426 1425 1423 1422 1420 1418 1416 1415 1413 1411 1410 1408 1407 1405 1404 1403 1402 1400 1399 1398 1396 1395 1394 1392 1391 1390 1389 1388 1387 1385 1385 1384 1383 1382 1381
1480 1479 1478 1476 1475 1473 1472 1470 1469 1468 1467 1465 1464 1462 1461 1459 1457 1456 1454 1452 1451 1449 1448 1446 1444 1443 1441 1440 1438 1436 1435 1433 1431 1429 1427 1426 1424 1423 1421 1420 1418 1416 1414 1413 1411 1410 1408 1407 1406 1405 1403 1402 1400 1399 1398 1397 1395 1394 1393 1392 1391 1390 1389 1387 1386 1385 1385 1384 1383
1481 1479 1478 1477 1475 1474 1472 1471 1470 1469 1467 1466 1465 1463 1461 1460 1458 1456 1455 1453 1452 1450 1448 1447 1445 1444 1442 1441 1439 1438 1436 1434 1432 1430 1429 1427 1426 1424 1423 1421 1419 1418 1416 1415 1413 1411 1410 1409 1408 1406 1405 1404 1403 1401 1400 1399 1397 1396 1395 1394 1393 1392 1391 1390 1389 1388 1387 1386 1385
1481 1480 1479 1477 1476 1475 1473 1472 1470 1469 1468 1467 1465 1464 1462 1461 1459 1457 1456 1454 1453 1451 1450 1448 1446 1445 1443 1442 1440 1439 1437 1435 1433 1432 1430 1429 1427 1426 1424 1423 1421 1419 1418 1416 1415 1414 1412 1411 1410 1409 1407 1406 1405 1404 1403 1401 1400 1398 1397 1396 1395 1394 1393 1392 1391 1390 1389 1389 1388
1482 1480 1479 1478 1476 1475 1474 1473 1471 1470 1469 1468 1466 1465 1463 1462 1460 1459 1457 1455 1454 1452 1451 1449 1448 1446 1445 1443 1442 1440 1439 1437 1435 1434 1432 1431 1429 1428 1426 1424 1423 1421 1420 1418 1417 1416 1415 1413 1412 1411 1410 1408 1407 1406 1405 1403 1402 1401 1400 1398 1397 1396 1395 1394 1393 1392 1391 1391 1390
1482 1481 1480 1479 1477 1476 1475 1474 1473 1471 1470 1469 1468 1466 1465 1463 1461 1460 1458 1457 1455 1454 1452 1450 1449 1448 1446 1445 1443 1442 1440 1439 1437 1435 1434 1432 1431 1429 1428 1426 1425 1423 1422 1420 1419 1418 1417 1415 1414 1413 1412 1410 1409 1408 1406 1405 1404 1403 1402 1400 1399 1398 1397 1396 1395 1394 1393 1393 1392
1483 1482 1481 1480 1479 1477 1476 1475 1474 1473 1471 1470 1469 1467 1466 1465 1463 1461 1460 1459 1457 1455 1454 1452 1450 1449 1447 1446 1445 1443 1441 1440 1439 1437 1436 1434 1433 1431 1430 1428 1427 1425 1424 1422 1421 1420 1418 1417 1416 1415 1414 1412 1411 1410 1409 1407 1406 1405 1404 1403 1401 1400 1400 1398 1397 1396 1395 1395 1394
1484 1483 1482 1481 1480 1479 1477 1476 1475 1474 1473 1471 1470 1469 1467 1466 1464 1463 1462 1460 1459 1457 1455 1454 1452 1450 1449 1447 1446 1445 1443 1442 1440 1439 1437 1436 1434 1433 1431 1430 1429 1427 1426 1424 1423 1422 1420 1419 1418 1417 1416 1415 1413 1412 1411 1410 1408 1407 1406 1405 1404 1403 1402 1401 1400 1399 1398 1397 1396
1485 1484 1483 1482 1481 1480 1479 1478 1476 1475 1474 1473 1471 1470 1469 1467 1466 1465 1463 1461 1460 1458 1456 1455 1453 1452 1450 1449 1448 1446 1445 1443 1442 1440 1439 1437 1436 1435 1433 1432 1430 1429 1428 1426 1425 1424 1423 1421 1420 1419 1418 1416 1415 1414 1413 1412 1410 1410 1408 1407 1406 1405 1404 1403 1402 1401 1400 1400 1399
1487 1485 1485 1483 1482 1481 1480 1479 1478 1476 1475 1474 1473 1471 1470 1469 1467 1466 1464 1463 1461 1459 1458 1456 1455 1453 1452 1450 1449 1448 1446 1445 1443 1442 1440 1439 1438 1436 1435 1433 1432 1430 1430 1429 1428 1426 1425 1423 1422 1421 1420 1419 1418 1416 1415 1414 1413 1412 1411 1410 1409 1408 1407 1406 1405 1404 1403 1402 1402
1488 1487 1486 1485 1483 1482 1481 1480 1479 1477 1476 1475 1474 1473 1471 1470 1468 1467 1465 1464 1462 1460 1459 1458 1456 1455 1454 1452 1451 1450 1448 1446 1445 1443 1442 1440 1439 1438 1437 1435 1434 1433 1432 1431 1430 1429 1427 1426 1425 1423 1422 1421 1420 1419 1418 1417 1416 1415 1414 1413 1412 1411 1410 1409 1408 1407 1406 1405 1405
1489 1488 1487 1485 1485 1483 1482 1481 1480 1479 1478 1476 1475 1474 1472 1471 1470 1468 1466 1465 1463 1462 1460 1459 1458 1456 1455 1454 1452 1451 1449 1448 1446 1445 1444 1442 1441 1440 1439 1437 1436 1435 1435 1434 1433 1431 1430 1429 1427 1426 1425 1424 1422 1421 1420 1420 1419 1418 1417 1416 1415 1414 1413 1412 1411 1410 1410 1409 1409
1490 1489 1488 1487 1485 1485 1483 1482 1481 1480 1479 1477 1476 1475 1473 1472 1471 1469 1468 1466 1465 1464 1462 1461 1459 1458 1457 1455 1454 1452 1451 1450 1448 1447 1446 1445 1443 1442 1441 1440 1439 1438 1437 1436 1435 1434 1432 1431 1430 1429 1427 1426 1425 1424 1423 1422 1421 1421 1420 1419 1418 1417 1416 1415 1414 1414 1413 1413 1412
1491 1490 1489 1488 1487 1485 1485 1483 1482 1481 1480 1479 1477 1476 1475 1473 1472 1470 1469 1468 1466 1465 1464 1462 1461 1460 1459 1457 1455 1454 1453 1451 1450 1449 1448 1446 1445 1444 1443 1442 1441 1440 1440 1439 1437 1436 1435 1434 1433 1431 1430 1429 1428 1427 1426 1425 1424 1423 1422 1421 1420 1419 1418 1417 1417 1416 1415 1415 1414
1492 1491 1490 1489 1488 1487 1486 1485 1483 1482 1481 1480 1479 1477 1476 1475 1473 1472 1471 1469 1468 1466 1465 1464 1463 1462 1460 1459 1457 1456 1455 1453 1452 1451 1450 1449 1447 1446 1445 1444 1444 1443 1442 1441 1440 1439 1438 1436 1435 1434 1433 1432 1430 1430 1429 1427 1426 1425 1425 1424 1423 1422 1421 1420 1419 1418 1418 1417 1416
1493 1492 1491 1490 1489 1488 1487 1485 1485 1483 1482 1481 1480 1479 1477 1476 1475 1473 1472 1471 1469 1468 1467 1466 1465 1463 1462 1460 1459 1458 1456 1455 1454 1453 1451 1450 1449 1448 1447 1446 1445 1445 1444 1443 1442 1441 1440 1439 1438 1436 1435 1434 1433 1432 1430 1429 1428 1427 1426 1426 1425 1424 1423 1423 1422 1421 1420 1419 1418
1494 1493 1492 1491 1490 1489 1488 1487 1486 1485 1484 1482 1481 1480 1479 1477 1476 1475 1474 1472 1471 1470 1469 1468 1467 1465 1464 1462 1461 1460 1458 1457 1456 1455 1453 1452 1451 1450 1450 1448 1448 1447 1446 1445 1445 1444 1442 1441 1440 1439 1438 1436 1435 1434 1433 1431 1430 1430 1429 1428 1427 1426 1426 1425 1424 1423 1422 1421 1420
1495 1494 1493 1492 1491 1490 1489 1488 1487 1486 1485 1484 1483 1481 1480 1479 1478 1476 1475 1474 1473 1472 1471 1470 1468 1467 1465 1464 1463 1461 1460 1459 1458 1456 1455 1455 1453 1453 1452 1450 1450 1449 1449 1448 1447 1446 1445 1444 1443 1442 1440 1439 1438 1436 1435 1434 1433 1432 1431 1430 1429 1429 1428 1427 1426 1425 1424 1423 1423
1496 1495 1494 1493 1492 1491 1490 1490 1488 1487 1486 1485 1484 1483 1481 1480 1479 1478 1477 1476 1475 1474 1472 1471 1470 1468 1467 1466 1465 1463 1462 1461 1460 1459 1458 1457 1456 1455 1454 1452 1452 1451 1451 1450 1449 1448 1447 1446 1445 1444 1443 1442 1440 1439 1438 1437 1435 1435 1433 1432 1431 1431 1430 1429 1428 1427 1426 1425 1425
1497 1496 1495 1495 1494 1493 1492 1491 1490 1489 1488 1486 1485 1484 1483 1482 1481 1480 1479 1478 1477 1475 1474 1473 1471 1470 1469 1468 1466 1465 1464 1463 1462 1461 1460 1459 1458 1457 1456 1455 1454 1453 1453 1452 1451 1450 1449 1448 1447 1446 1445 1444 1443 1441 1440 1439 1438 1437 1436 1435 1434 1433 1432 1431 1430 1430 1429 1428 1427
1499 1498 1497 1495 1495 1494 1493 1492 1491 1490 1489 1488 1486 1485 1484 1483 1482 1481 1480 1479 1478 1477 1476 1474 1473 1472 1470 1470 1468 1467 1466 1465 1464 1463 1462 1461 1460 1459 1458 1457 1456 1455 1455 1454 1453 1452 1451 1450 1450 1449 1448 1446 1445 1444 1443 1442 1440 1440 1438 1437 1436 1435 1434 1433 1432 1431 1431 1430 1429
1500 1499 1498 1497 1496 1495 1494 1493 1492 1491 1490 1489 1487 1486 1485 1484 1483 1482 1481 1481 1480 1479 1477 1476 1475 1474 1472 1471 1470 1469 1468 1467 1466 1465 1464 1463 1462 1461 1460 1459 1459 1458 1457 1456 1455 1455 1454 1453 1452 1451 1450 1449 1447 1446 1445 1444 1443 1442 1441 1440 1439 1437 1436 1435 1435 1434 1433 1432 1431
1500 1500 1499 1498 1497 1496 1495 1494 1493 1492 1491 1490 1489 1488 1487 1485 1485 1484 1483 1482 1481 1480 1479 1478 1476 1475 1474 1473 1472 1471 1470 1469 1468 1467 1465 1465 1464 1463 1462 1461 1460 1460 1459 1458 1457 1457 1456 1455 1454 1453 1452 1451 1449 1448 1447 1446 1445 1444 1443 1442 1441 1440 1439 1438 1437 1436 1435 1434 1433
1502 1501 1500 1499 1498 1497 1496 1495 1494 1493 1492 1491 1490 1489 1488 1487 1486 1485 1484 1483 1482 1481 1480 1479 1478 1477 1476 1475 1474 1474 1473 1471 1470 1469 1467 1466 1465 1465 1464 1463 1462 1462 1461 1460 1460 1459 1458 1457 1456 1455 1454 1453 1452 1450 1449 1448 1447 1446 1445 1444 1443 1442 1441 1440 1439 1438 1437 1436 1435
1503 1502 1501 1500 1499 1498 1497 1496 1495 1494 1493 1492 1491 1490 1489 1488 1487 1486 1485 1485 1484 1483 1482 1480 1480 1479 1478 1477 1476 1476 1475 1474 1473 1471 1470 1469 1467 1467 1466 1465 1465 1464 1463 1462 1462 1461 1460 1460 1459 1458 1456 1455 1454 1453 1451 1450 1450 1449 1447 1446 1445 1444 1443 1442 1441 1440 1439 1438 1437
1504 1503 1502 1501 1500 1500 1499 1498 1496 1495 1495 1494 1493 1492 1491 1490 1489 1488 1487 1486 1485 1484 1483 1482 1481 1481 1480 1479 1479 1478 1477 1476 1475 1474 1472 1471 1470 1469 1468 1467 1467 1466 1465 1465 1464 1463 1462 1462 1461 1460 1459 1457 1456 1455 1454 1453 1452 1451 1450 1448 1447 1446 1445 1444 1443 1442 1441 1440 1439
1505 1504 1503 1502 1501 1500 1500 1499 1498 1497 1496 1495 1494 1493 1492 1491 1490 1490 1488 1487 1486 1486 1485 1484 1483 1483 1482 1481 1480 1480 1479 1478 1477 1476 1475 1474 1472 1471 1470 1469 1469 1468 1467 1466 1466 1465 1465 1464 1463 1462 1461 1460 1459 1457 1456 1455 1454 1453 1451 1450 1449 1448 1447 1446 1445 1444 1443 1441 1440